Location: Ferchesar
(52.6477°N, 12.4298°E)
Time: 21:53:23
(UTC+02:00)

Transit 4A - Pass Details

Date: 07 March 2021
Orbit: 868 x 976 km, 66.8° (Epoch: 10 April)

Event Time Altitude Azimuth Distance (km) Brightness Sun altitude
Rises 16:26:10 0° 317° (NW) 3,609 11.2 12.8°
Reaches altitude 10° 16:28:55 10° 325° (NW) 2,645 10.5 12.4°
Maximum altitude 16:34:42 41° 35° (NE) 1,302 8.5 11.6°
Drops below altitude 10° 16:40:18 10° 105° (ESE) 2,565 9.8 10.8°
Sets 16:42:55 0° 113° (ESE) 3,488 10.5 10.5°
